Location: Newark
(41.6500°N, 71.4833°W)
Time: 00:32:28
(UTC+00:00)

deb Explorer IX - Pass Details

Date: 25 January 2020
Orbit: 549 x 1099 km, 38.8° (Epoch: 24 February)

Event Time Altitude Azimuth Distance (km) Brightness Sun altitude
Rises 02:33:59 0° 234° (SW) 3,736 - -52.1°
Reaches altitude 10° 02:36:41 10° 229° (SW) 2,842 - -52.5°
Maximum altitude 02:43:22 47° 158° (SSE) 1,402 - -53.6°
Drops below altitude 10° 02:50:18 10° 87° (E) 2,942 - -54.8°
Sets 02:53:08 0° 82° (E) 3,878 - -55.2°
